Regional Weather Roundup
Issued by NWS Little Rock, AR

Home | Current Version | Previous Version | Text Only | Print | Product List | Glossary Off
Versions: 1 2 3 4 5 6 7 8 9 10 11 12 13 14 15 16 17 18 19 20 21 22 23 24 25 26 27 28 29 30 31 32 33 34 35 36 37 38 39 40 41 42 43 44 45 46 47 48 49 50

000
ASUS44 KLZK 220305
RWRLZK

WEATHER ROUNDUP FOR ARKANSAS
NATIONAL WEATHER SERVICE LITTLE ROCK AR
1000 PM CDT SAT APR 21 2018

NOTE: "FAIR" INDICATES FEW OR NO CLOUDS BELOW 12,000 FEET WITH NO
SIGNIFICANT WEATHER AND/OR OBSTRUCTIONS TO VISIBILITY.

ARZ001-003-010-029-220400-
NORTHWEST ARKANSAS

CITY           SKY/WX    TMP DP  RH WIND       PRES   REMARKS
FAYETTEVILLE   CLOUDY    53  52  96 NE6       30.05S FOG
FORT SMITH     CLOUDY    57  56  96 E7        30.02F
HARRISON       LGT RAIN  55  52  89 E3        30.07R
BENTONVILLE    LGT RAIN  52  51  97 NE7       30.07F
ROGERS         LGT RAIN  52  51  97 NE5       30.06F
SILOAM SPGS    CLOUDY    51  50  96 MISG      30.05F
HIGHFILL       CLOUDY    52  52 100 NE6       30.05F
$$

ARZ004-005-016-220400-
NORTH CENTRAL ARKANSAS

CITY           SKY/WX    TMP DP  RH WIND       PRES   REMARKS
BATESVILLE     CLOUDY    65  46  50 E9        30.06R
FLIPPIN        CLOUDY    63  44  50 NE5       30.06S
MTN HOME       CLOUDY    61  43  51 E5        30.05
$$

ARZ040-041-220400-
WEST CENTRAL ARKANSAS

CITY           SKY/WX    TMP DP  RH WIND       PRES   REMARKS
MENA           CLOUDY   N/A N/A N/A NE5       30.02S
MOUNT IDA      LGT RAIN  56  56 100 CALM      30.01S
$$

ARZ009-017-025-026-028-220400-
NORTHEAST ARKANSAS

CITY           SKY/WX    TMP DP  RH WIND       PRES   REMARKS
CORNING        MOCLDY    64  48  55 E9        30.09F
JONESBORO      LGT RAIN  63  54  72 E6        30.08R
NEWPORT        MOCLDY    64  49  57 E8        30.06F
WALNUT RIDGE   LGT RAIN  62  48  60 E10       30.08F
BLYTHEVILLE    FAIR      67  42  40 SE12      30.09F
$$

ARZ022-023-033-042-044-220400-
CENTRAL ARKANSAS

CITY           SKY/WX    TMP DP  RH WIND       PRES   REMARKS
LITTLE ROCK    LGT RAIN  62  53  72 NE7       30.02R
N LITTLE ROCK    N/A     60  53  78 E5        30.00R
JACKSONVILLE   LGT RAIN  60  55  84 CALM      30.01S
CONWAY         MOCLDY    59  57  94 NW7       30.03R FOG
SEARCY         MOCLDY    64  49  57 NE7       30.04F
HOT SPRINGS    RAIN      58  57  97 E6        30.03R FOG
RUSSELLVILLE   LGT RAIN  57  55  93 CALM      30.02F
CLINTON        LGT RAIN  57  54  88 CALM      30.07R
$$

ARZ036-220400-
EAST ARKANSAS

CITY           SKY/WX    TMP DP  RH WIND       PRES   REMARKS
WEST MEMPHIS   MOCLDY    69  50  50 SE9       30.05F
$$

ARZ050-053-066-070-073-220400-
SOUTHWEST ARKANSAS

CITY           SKY/WX    TMP DP  RH WIND       PRES   REMARKS
ARKADELPHIA    TSTM      57  56  96 NE5       30.04R
CAMDEN         HVY RAIN  57  55  94 W3        29.99S
TEXARKANA      LGT RAIN  57  57 100 VRB7G18   29.95F FOG
EL DORADO      LGT RAIN  59  58  96 E9        29.95F
DE QUEEN       CLOUDY    58  57  97 E7        29.97F
$$

ARZ056-057-069-220400-
SOUTHEAST ARKANSAS

CITY           SKY/WX    TMP DP  RH WIND       PRES   REMARKS
PINE BLUFF     LGT RAIN  63  53  70 CALM      30.00R
STUTTGART      CLOUDY    65  52  62 NE9       30.02R
MONTICELLO     LGT RAIN  65  53  65 VRB3      29.99F

$$





USA.gov is the U.S. government's official web portal to all federal, state and local government web resources and services.